CFG35T EDDM-EDDL

Flight info

Callsign CFG35T
Flight time N/A
Altitude 32000
Route GIVMI6S GIVMI Y101 INBED DCT REKDI DCT LOHRE Z850 ARPEG/N0414F240 Z850 ADEMI T854 DOMUX DOMUX1A
Aircraft A20N/M-SDE2E3FGHIRWXY/LB1

Departure

Time 2026-05-05 18:48
Airport Munich Airport (EDDM)

Arrival

Time N/A
Airport Düsseldorf Airport (EDDL)
Time Latitude Longitude Altitude Speed Heading
2026-05-05 18:17 48.35731 11.79691 1463 ft 0 kts 84°
2026-05-05 18:32 48.35730 11.79683 1464 ft 2 kts 84°
2026-05-05 18:32 48.35729 11.79661 1464 ft 2 kts 84°
2026-05-05 18:33 48.35727 11.79639 1464 ft 2 kts 84°
2026-05-05 18:33 48.35725 11.79616 1465 ft 2 kts 84°
2026-05-05 18:33 48.35724 11.79600 1465 ft 0 kts 84°
2026-05-05 18:33 48.35721 11.79580 1465 ft 2 kts 60°
2026-05-05 18:34 48.35712 11.79562 1466 ft 2 kts 38°
2026-05-05 18:34 48.35699 11.79552 1466 ft 2 kts 15°
2026-05-05 18:34 48.35687 11.79549 1466 ft 0 kts 356°
2026-05-05 18:34 48.35688 11.79549 1466 ft 3 kts 357°
2026-05-05 18:35 48.35714 11.79546 1466 ft 3 kts 353°
2026-05-05 18:35 48.35721 11.79544 1466 ft 0 kts 353°
2026-05-05 18:40 48.35722 11.79544 1466 ft 1 kts 353°
2026-05-05 18:40 48.35796 11.79531 1466 ft 15 kts 353°
2026-05-05 18:40 48.35907 11.79509 1465 ft 16 kts 352°
2026-05-05 18:40 48.35978 11.79494 1464 ft 4 kts 353°
2026-05-05 18:41 48.35984 11.79493 1464 ft 0 kts 353°
2026-05-05 18:41 48.35989 11.79492 1464 ft 0 kts 354°
2026-05-05 18:42 48.35991 11.79491 1464 ft 2 kts 354°
2026-05-05 18:42 48.36034 11.79486 1463 ft 10 kts 355°
2026-05-05 18:42 48.36131 11.79473 1461 ft 17 kts 354°
2026-05-05 18:43 48.36223 11.79556 1458 ft 19 kts 81°
2026-05-05 18:43 48.36231 11.79683 1457 ft 19 kts 83°
2026-05-05 18:43 48.36247 11.79886 1455 ft 20 kts 83°
2026-05-05 18:43 48.36264 11.80103 1453 ft 21 kts 84°
2026-05-05 18:44 48.36282 11.80328 1452 ft 21 kts 83°
2026-05-05 18:44 48.36298 11.80552 1451 ft 21 kts 85°
2026-05-05 18:44 48.36315 11.80785 1449 ft 23 kts 84°
2026-05-05 18:44 48.36334 11.81037 1447 ft 24 kts 83°
2026-05-05 18:45 48.36356 11.81295 1447 ft 25 kts 82°
2026-05-05 18:45 48.36375 11.81558 1447 ft 25 kts 85°
2026-05-05 18:45 48.36396 11.81819 1447 ft 23 kts 82°
2026-05-05 18:45 48.36413 11.81991 1447 ft 13 kts 39°
2026-05-05 18:46 48.36471 11.81999 1447 ft 0 kts 352°
2026-05-05 18:46 48.36477 11.81997 1447 ft 3 kts 352°
2026-05-05 18:46 48.36557 11.81983 1447 ft 18 kts 353°
2026-05-05 18:47 48.36669 11.81885 1447 ft 19 kts 278°
2026-05-05 18:47 48.36657 11.81707 1447 ft 19 kts 264°
2026-05-05 18:47 48.36613 11.81096 1448 ft 96 kts 265°
2026-05-05 18:47 48.36506 11.79781 1465 ft 154 kts 264°
2026-05-05 18:48 48.36388 11.78147 2022 ft 158 kts 268°
2026-05-05 18:48 48.36332 11.76530 2814 ft 156 kts 269°
2026-05-05 18:48 48.36225 11.74996 3602 ft 151 kts 266°
2026-05-05 18:48 48.36089 11.73352 4034 ft 168 kts 266°
2026-05-05 18:49 48.35939 11.71542 4466 ft 186 kts 265°
2026-05-05 18:49 48.35787 11.69540 4939 ft 203 kts 269°
2026-05-05 18:49 48.36029 11.67337 5349 ft 226 kts 292°
2026-05-05 18:49 48.36807 11.65224 5978 ft 242 kts 300°
2026-05-05 18:50 48.37711 11.63016 6558 ft 255 kts 300°
2026-05-05 18:50 48.38648 11.60739 6947 ft 261 kts 300°
2026-05-05 18:50 48.39621 11.58365 7710 ft 269 kts 299°
2026-05-05 18:50 48.40588 11.56002 8665 ft 271 kts 298°
2026-05-05 18:51 48.41571 11.53584 9331 ft 277 kts 298°
2026-05-05 18:51 48.42582 11.51091 9717 ft 279 kts 298°
2026-05-05 18:51 48.43589 11.48606 9807 ft 280 kts 298°
2026-05-05 18:51 48.44615 11.46075 9986 ft 287 kts 299°
2026-05-05 18:52 48.45943 11.43818 10773 ft 299 kts 321°
2026-05-05 18:52 48.47841 11.42495 11645 ft 310 kts 343°
2026-05-05 18:52 48.50019 11.41856 12135 ft 328 kts 347°
2026-05-05 18:52 48.52304 11.41276 12566 ft 346 kts 348°
2026-05-05 18:53 48.54752 11.40647 12966 ft 365 kts 348°
2026-05-05 18:53 48.57321 11.39968 13314 ft 383 kts 347°
2026-05-05 18:53 48.59974 11.39251 13618 ft 400 kts 347°
2026-05-05 18:53 48.62791 11.38479 13956 ft 415 kts 347°
2026-05-05 18:54 48.65635 11.37699 14540 ft 422 kts 347°
2026-05-05 18:54 48.68484 11.36673 15221 ft 423 kts 340°
2026-05-05 18:54 48.71208 11.35060 15863 ft 425 kts 332°
2026-05-05 18:54 48.73778 11.32872 16474 ft 427 kts 324°
2026-05-05 18:55 48.76259 11.30379 17081 ft 431 kts 323°
2026-05-05 18:55 48.78758 11.27791 17654 ft 436 kts 323°
2026-05-05 18:55 48.81258 11.25234 18189 ft 441 kts 324°
2026-05-05 18:55 48.83919 11.22888 18712 ft 448 kts 329°
2026-05-05 18:56 48.86781 11.20853 19246 ft 455 kts 335°
2026-05-05 18:56 48.89746 11.19180 19791 ft 460 kts 339°
2026-05-05 18:56 48.92778 11.17634 20292 ft 464 kts 340°
2026-05-05 18:56 48.95845 11.16106 20789 ft 468 kts 340°
2026-05-05 18:57 48.98962 11.14550 21283 ft 473 kts 340°
2026-05-05 18:57 49.02079 11.12982 21724 ft 478 kts 340°
2026-05-05 18:57 49.05269 11.11362 22179 ft 482 kts 340°
2026-05-05 18:57 49.08442 11.09742 22608 ft 486 kts 340°
2026-05-05 18:58 49.11621 11.08116 23025 ft 489 kts 341°
2026-05-05 18:58 49.14870 11.06457 23416 ft 493 kts 341°
2026-05-05 18:58 49.18131 11.04791 23812 ft 496 kts 341°
2026-05-05 18:58 49.21398 11.03058 24200 ft 498 kts 338°
2026-05-05 18:59 49.24334 11.00405 24590 ft 497 kts 320°
2026-05-05 18:59 49.26878 10.96849 25200 ft 493 kts 314°
2026-05-05 18:59 49.29275 10.93119 25728 ft 492 kts 313°
2026-05-05 18:59 49.31668 10.89375 26191 ft 492 kts 313°
2026-05-05 19:00 49.34088 10.85672 26672 ft 492 kts 314°
2026-05-05 19:00 49.36524 10.82019 27166 ft 491 kts 315°
2026-05-05 19:00 49.38956 10.78427 27659 ft 490 kts 315°
2026-05-05 19:00 49.41431 10.74800 28142 ft 489 kts 315°
2026-05-05 19:01 49.43905 10.71189 28607 ft 489 kts 316°
2026-05-05 19:01 49.46352 10.67624 29073 ft 489 kts 315°
2026-05-05 19:01 49.48819 10.64029 29514 ft 489 kts 316°
2026-05-05 19:01 49.51295 10.60416 29976 ft 488 kts 316°
2026-05-05 19:02 49.53717 10.56880 30430 ft 488 kts 316°
2026-05-05 19:02 49.56179 10.53280 30774 ft 490 kts 316°
2026-05-05 19:02 49.58655 10.49660 31038 ft 493 kts 316°
2026-05-05 19:02 49.61154 10.45999 31325 ft 495 kts 316°
2026-05-05 19:03 49.63657 10.42328 31665 ft 496 kts 316°
2026-05-05 19:03 49.66122 10.38704 31795 ft 498 kts 316°
2026-05-05 19:03 49.71144 10.31307 31802 ft 498 kts 315°
2026-05-05 19:04 49.76138 10.23923 31811 ft 498 kts 315°
2026-05-05 19:04 49.81137 10.16507 31804 ft 500 kts 315°
2026-05-05 19:05 49.86132 10.09080 31796 ft 500 kts 315°
2026-05-05 19:05 49.91135 10.01621 31792 ft 501 kts 315°
2026-05-05 19:06 49.96119 9.94164 31794 ft 501 kts 315°
2026-05-05 19:06 50.01126 9.86654 31785 ft 501 kts 315°
2026-05-05 19:07 50.06110 9.79153 31785 ft 501 kts 315°
2026-05-05 19:07 50.11098 9.71626 31791 ft 501 kts 315°
2026-05-05 19:08 50.16077 9.64086 31785 ft 502 kts 315°
2026-05-05 19:08 50.21066 9.56508 31787 ft 502 kts 315°
2026-05-05 19:09 50.26064 9.48892 31792 ft 502 kts 315°
2026-05-05 19:09 50.31041 9.41285 31798 ft 502 kts 315°
2026-05-05 19:10 50.35990 9.33698 31793 ft 502 kts 314°
2026-05-05 19:10 50.40963 9.26053 31789 ft 502 kts 314°
2026-05-05 19:11 50.45941 9.18372 31790 ft 502 kts 314°
2026-05-05 19:11 50.50900 9.10703 31783 ft 502 kts 314°
2026-05-05 19:12 50.55878 9.02971 31783 ft 502 kts 314°
2026-05-05 19:12 50.60834 8.95250 31787 ft 504 kts 314°
2026-05-05 19:13 50.65764 8.87549 31786 ft 503 kts 314°
2026-05-05 19:13 50.70711 8.79790 31265 ft 502 kts 314°
2026-05-05 19:14 50.73176 8.75904 30694 ft 496 kts 314°
2026-05-05 19:14 50.75579 8.72113 30122 ft 492 kts 314°
2026-05-05 19:14 50.78001 8.68292 29542 ft 491 kts 314°
2026-05-05 19:14 50.80388 8.64522 28971 ft 491 kts 314°
2026-05-05 19:15 50.82795 8.60714 28397 ft 491 kts 314°
2026-05-05 19:15 50.85195 8.56916 27822 ft 491 kts 314°
2026-05-05 19:15 50.87607 8.53102 27245 ft 490 kts 314°
2026-05-05 19:15 50.90018 8.49276 26671 ft 490 kts 314°
2026-05-05 19:16 50.92386 8.45508 26104 ft 490 kts 314°
2026-05-05 19:16 50.94791 8.41674 25535 ft 490 kts 314°
2026-05-05 19:16 50.97189 8.37844 24992 ft 489 kts 314°
2026-05-05 19:16 50.99487 8.33929 24676 ft 487 kts 310°
2026-05-05 19:17 51.01688 8.29859 24054 ft 482 kts 308°
2026-05-05 19:17 51.03799 8.25855 23081 ft 481 kts 308°
2026-05-05 19:17 51.05946 8.21783 22328 ft 474 kts 309°
2026-05-05 19:17 51.08047 8.17817 21637 ft 468 kts 309°
2026-05-05 19:18 51.10133 8.13893 20894 ft 463 kts 309°
2026-05-05 19:18 51.12188 8.10033 20159 ft 457 kts 309°
2026-05-05 19:18 51.14226 8.06209 19428 ft 452 kts 309°
2026-05-05 19:18 51.16250 8.02407 18702 ft 447 kts 309°
2026-05-05 19:19 51.18217 7.98709 17989 ft 442 kts 309°
2026-05-05 19:19 51.20186 7.95005 17274 ft 437 kts 310°
2026-05-05 19:19 51.22138 7.91328 16584 ft 432 kts 310°
2026-05-05 19:19 51.24068 7.87688 15875 ft 427 kts 309°
2026-05-05 19:20 51.25964 7.84108 15185 ft 422 kts 309°
2026-05-05 19:20 51.27828 7.80583 14525 ft 417 kts 309°
2026-05-05 19:20 51.29498 7.76855 13993 ft 411 kts 297°
2026-05-05 19:20 51.30441 7.72562 13818 ft 409 kts 280°
2026-05-05 19:21 51.30568 7.68081 13808 ft 408 kts 264°
2026-05-05 19:21 51.30149 7.63643 13821 ft 408 kts 259°
2026-05-05 19:21 51.29605 7.59171 13814 ft 408 kts 258°
2026-05-05 19:21 51.29051 7.54782 13805 ft 396 kts 258°
2026-05-05 19:22 51.28513 7.50558 13799 ft 374 kts 258°
2026-05-05 19:22 51.28004 7.46560 13809 ft 368 kts 258°
2026-05-05 19:22 51.27497 7.42587 13800 ft 366 kts 258°
2026-05-05 19:22 51.26993 7.38650 13540 ft 361 kts 258°
2026-05-05 19:23 51.26486 7.34696 12726 ft 367 kts 257°
2026-05-05 19:23 51.25973 7.30697 11720 ft 376 kts 258°
2026-05-05 19:23 51.25443 7.26581 10678 ft 385 kts 258°
2026-05-05 19:23 51.24907 7.22415 9912 ft 384 kts 258°
2026-05-05 19:24 51.24381 7.18325 9626 ft 369 kts 258°
2026-05-05 19:24 51.23867 7.14344 9366 ft 355 kts 258°
2026-05-05 19:24 51.23381 7.10576 9113 ft 342 kts 258°
2026-05-05 19:24 51.22916 7.06979 8896 ft 330 kts 258°
2026-05-05 19:25 51.22459 7.03449 8690 ft 318 kts 258°
2026-05-05 19:25 51.22023 7.00079 8486 ft 307 kts 258°
2026-05-05 19:25 51.21596 6.96786 8295 ft 296 kts 258°
2026-05-05 19:25 51.21189 6.93644 8108 ft 286 kts 258°
2026-05-05 19:26 51.20793 6.90586 7830 ft 280 kts 258°
2026-05-05 19:26 51.20399 6.87549 7442 ft 279 kts 259°
2026-05-05 19:26 51.20005 6.84519 7043 ft 278 kts 259°
2026-05-05 19:26 51.19617 6.81538 6660 ft 277 kts 259°
2026-05-05 19:27 51.19192 6.78560 6281 ft 275 kts 252°
2026-05-05 19:27 51.18292 6.75891 5884 ft 275 kts 236°
2026-05-05 19:27 51.17170 6.73384 5479 ft 275 kts 234°
2026-05-05 19:27 51.16050 6.70979 5139 ft 272 kts 233°
2026-05-05 19:28 51.14938 6.68604 4965 ft 263 kts 233°
2026-05-05 19:28 51.13873 6.66335 4773 ft 251 kts 233°
2026-05-05 19:28 51.12840 6.64133 4553 ft 241 kts 233°
2026-05-05 19:28 51.11868 6.62061 4391 ft 233 kts 234°
2026-05-05 19:29 51.11184 6.59870 4204 ft 227 kts 262°
2026-05-05 19:29 51.11139 6.59387 4160 ft 225 kts 269°